カタログに戻る

FENGYUN 1C DEB

運用中SSO
NORAD 29894·DEBRIS·🇨🇳 China

打ち上げ May 10, 1999 から Taiyuan Satellite Launch Center

Loading…

次のパス (今後24時間)

TLE

最新Source: Space-Track

元期: Sep 14, 2026, 20:00 UTC

1 29894U 99025GQ  26257.83375191  .00000230  00000-0  23230-3 0  9994
2 29894  99.4564 317.9721 0168201  36.6252  14.1451 13.81270794988882

AllMySatでFENGYUN 1C DEBをリアルタイム追跡

Download on the App Store